,,,PA_Meas_PMT16A,,PR_Meas_QMR101_102,,RH_Meas_QMH101,,SR_Meas_QMS101,,TA_Meas_QMH101,,GenWind,,GenWind,
date,time,status,PA,status,PR,status,RH,status,SR,status,TA,status,DirAvg,status,SpdAvg,
2008-06-22, 00:00:05,VALID,1004.68,VALID,0,VALID,94.1633,VALID,0,VALID,24.4841,VALID,88,VALID,0.996484,
2008-06-22, 00:01:05,VALID,1004.66,VALID,0,VALID,94.0717,VALID,0,VALID,24.5035,VALID,22,VALID,0.395703,
2008-06-22, 00:02:05,VALID,1004.67,VALID,0,VALID,93.9802,VALID,0,VALID,24.5017,VALID,28,VALID,1.04453,
2008-06-22, 00:03:05,VALID,1004.68,VALID,0,VALID,93.7361,VALID,0,VALID,24.4822,VALID,3,VALID,0.995313,
2008-06-22, 00:04:05,VALID,1004.66,VALID,0,VALID,93.8047,VALID,0,VALID,24.4646,VALID,1,VALID,0.924609,
2008-06-22, 00:05:05,VALID,1004.66,VALID,0,VALID,93.82,VALID,0.100563,VALID,24.4451,VALID,16,VALID,0.85,
2008-06-22, 00:06:05,VALID,1004.68,VALID,0,VALID,93.7513,VALID,0.100563,VALID,24.4043,VALID,5,VALID,0.615234,
2008-06-22, 00:07:05,VALID,1004.68,VALID,0,VALID,93.9649,VALID,0.100563,VALID,24.4257,VALID,63,VALID,0.889844,
2008-06-22, 00:08:05,VALID,1004.66,VALID,0,VALID,93.9878,VALID,0,VALID,24.4451,VALID,63,VALID,0.370703,
2008-06-22, 00:09:05,VALID,1004.62,VALID,0,VALID,93.9878,VALID,0.100563,VALID,24.4238,VALID,63,VALID,0.275,
2008-06-22, 00:10:05,VALID,1004.62,VALID,0,VALID,93.9573,VALID,0,VALID,24.4257,VALID,37,VALID,0.471484,
2008-06-22, 00:11:05,VALID,1004.57,VALID,0,VALID,94.0336,VALID,0,VALID,24.4257,VALID,111,VALID,0.736719,
2008-06-22, 00:12:05,VALID,1004.56,VALID,0,VALID,94.0488,VALID,0,VALID,24.4043,VALID,110,VALID,0.746484,
2008-06-22, 00:13:05,VALID,1004.55,VALID,0,VALID,94.1251,VALID,0,VALID,24.4646,VALID,92,VALID,0.646094,
2008-06-22, 00:14:05,VALID,1004.55,VALID,0,VALID,94.0412,VALID,0,VALID,24.4433,VALID,79,VALID,0.342187,
2008-06-22, 00:15:05,VALID,1004.53,VALID,0,VALID,93.9878,VALID,0,VALID,24.4628,VALID,89,VALID,0.619922,
2008-06-22, 00:16:05,VALID,1004.5,VALID,0,VALID,93.9115,VALID,0,VALID,24.4841,VALID,83,VALID,0.755859,
2008-06-22, 00:17:05,VALID,1004.47,VALID,0,VALID,93.8657,VALID,0,VALID,24.523,VALID,57,VALID,0.820313,
2008-06-22, 00:18:05,VALID,1004.43,VALID,0,VALID,93.8123,VALID,0,VALID,24.523,VALID,60,VALID,0.301953,
2008-06-22, 00:19:05,VALID,1004.42,VALID,0,VALID,93.7589,VALID,0,VALID,24.5017,VALID,51,VALID,0.735547,
2008-06-22, 00:20:05,VALID,1004.4,VALID,0,VALID,93.6903,VALID,0,VALID,24.523,VALID,80,VALID,0.925391,
2008-06-22, 00:21:05,VALID,1004.36,VALID,0,VALID,93.6292,VALID,0,VALID,24.562,VALID,92,VALID,0.885938,
2008-06-22, 00:22:05,VALID,1004.33,VALID,0,VALID,93.4996,VALID,0,VALID,24.6009,VALID,87,VALID,0.662891,
2008-06-22, 00:23:05,VALID,1004.35,VALID,0,VALID,93.3088,VALID,0,VALID,24.6204,VALID,42,VALID,0.839063,
2008-06-22, 00:24:05,VALID,1004.36,VALID,0,VALID,93.1563,VALID,0,VALID,24.6398,VALID,49,VALID,1.07305,
2008-06-22, 00:25:05,VALID,1004.33,VALID,0,VALID,93.0495,VALID,0,VALID,24.6398,VALID,42,VALID,0.546875,
2008-06-22, 00:26:05,VALID,1004.33,VALID,0,VALID,92.9961,VALID,0,VALID,24.6398,VALID,19,VALID,0.885156,
2008-06-22, 00:27:05,VALID,1004.33,VALID,0,VALID,93.0189,VALID,0,VALID,24.6185,VALID,39,VALID,0.488281,
2008-06-22, 00:28:05,VALID,1004.3,VALID,0,VALID,93.0037,VALID,0,VALID,24.638,VALID,56,VALID,1.12969,
2008-06-22, 00:29:05,VALID,1004.3,VALID,0,VALID,92.8587,VALID,0,VALID,24.6769,VALID,79,VALID,0.8625,
2008-06-22, 00:30:05,VALID,1004.27,VALID,0,VALID,92.729,VALID,0,VALID,24.6964,VALID,72,VALID,0.635547,
2008-06-22, 00:31:05,VALID,1004.27,VALID,0,VALID,92.5612,VALID,0,VALID,24.7159,VALID,78,VALID,1.56211,
2008-06-22, 00:32:05,VALID,1004.23,VALID,0,VALID,92.4468,VALID,0,VALID,24.7353,VALID,97,VALID,1.19687,
2008-06-22, 00:33:05,VALID,1004.26,VALID,0,VALID,92.3705,VALID,0.100563,VALID,24.7353,VALID,96,VALID,0.961328,
2008-06-22, 00:34:05,VALID,1004.23,VALID,0,VALID,92.3171,VALID,0,VALID,24.7567,VALID,90,VALID,1.09609,
2008-06-22, 00:35:05,VALID,1004.23,VALID,0,VALID,92.2942,VALID,0,VALID,24.7761,VALID,79,VALID,0.544922,
2008-06-22, 00:36:05,VALID,1004.2,VALID,0,VALID,92.2561,VALID,0,VALID,24.7567,VALID,100,VALID,0.441797,
2008-06-22, 00:37:05,VALID,1004.17,VALID,0,VALID,92.2789,VALID,0,VALID,24.7353,VALID,80,VALID,0.691406,
2008-06-22, 00:38:05,VALID,1004.16,VALID,0,VALID,92.2942,VALID,0,VALID,24.7159,VALID,85,VALID,0.534375,
2008-06-22, 00:39:05,VALID,1004.16,VALID,0,VALID,92.2866,VALID,0.100563,VALID,24.7159,VALID,85,VALID,0.500781,
2008-06-22, 00:40:05,VALID,1004.16,VALID,0,VALID,92.3476,VALID,0,VALID,24.6983,VALID,73,VALID,0.475391,
2008-06-22, 00:41:05,VALID,1004.15,VALID,0,VALID,92.4468,VALID,0,VALID,24.6788,VALID,54,VALID,0.44375,
2008-06-22, 00:42:05,VALID,1004.13,VALID,0,VALID,92.4849,VALID,0,VALID,24.638,VALID,52,VALID,0.188672,
2008-06-22, 00:43:05,VALID,1004.15,VALID,0,VALID,92.5841,VALID,0,VALID,24.6593,VALID,73,VALID,0.820313,
2008-06-22, 00:44:05,VALID,1004.16,VALID,0,VALID,92.6604,VALID,0,VALID,24.6204,VALID,61,VALID,0.204688,
2008-06-22, 00:45:05,VALID,1004.18,VALID,0,VALID,92.729,VALID,0,VALID,24.6204,VALID,47,VALID,0.458594,
2008-06-22, 00:46:05,VALID,1004.16,VALID,0,VALID,92.8511,VALID,0,VALID,24.6398,VALID,101,VALID,0.835547,
2008-06-22, 00:47:05,VALID,1004.12,VALID,0,VALID,92.874,VALID,0.100563,VALID,24.6185,VALID,39,VALID,0.593359,
2008-06-22, 00:48:05,VALID,1004.12,VALID,0,VALID,92.8511,VALID,0.100563,VALID,24.6593,VALID,66,VALID,0.805078,
2008-06-22, 00:49:05,VALID,1004.05,VALID,0,VALID,92.8206,VALID,0,VALID,24.6983,VALID,92,VALID,1.14219,
2008-06-22, 00:50:05,VALID,1004.06,VALID,0,VALID,92.6375,VALID,0,VALID,24.7372,VALID,86,VALID,0.712891,
2008-06-22, 00:51:05,VALID,1004.04,VALID,0,VALID,92.4925,VALID,0,VALID,24.7567,VALID,30,VALID,0.562891,
2008-06-22, 00:52:04,VALID,1004.05,VALID,0,VALID,92.4163,VALID,0.100563,VALID,24.7567,VALID,14,VALID,0.710156,
2008-06-22, 00:53:04,VALID,1004.05,VALID,0,VALID,92.401,VALID,0,VALID,24.7353,VALID,90,VALID,0.583203,
2008-06-22, 00:54:04,VALID,1004.07,VALID,0,VALID,92.2942,VALID,0,VALID,24.7353,VALID,66,VALID,0.895312,
2008-06-22, 00:55:04,VALID,1004.06,VALID,0,VALID,92.1874,VALID,0,VALID,24.7956,VALID,83,VALID,0.419141,
2008-06-22, 00:56:04,VALID,1004.07,VALID,0,VALID,92.0806,VALID,0,VALID,24.7761,VALID,70,VALID,0.646094,
2008-06-22, 00:57:04,VALID,1004.05,VALID,0,VALID,91.9738,VALID,0,VALID,24.7761,VALID,68,VALID,1.17344,
2008-06-22, 00:58:04,VALID,1004.03,VALID,0,VALID,91.9051,VALID,0,VALID,24.7956,VALID,96,VALID,0.461719,
2008-06-22, 00:59:04,VALID,1004.04,VALID,0,VALID,91.7373,VALID,0,VALID,24.8151,VALID,88,VALID,0.874609,
2008-06-22, 01:00:04,VALID,1004.03,VALID,0,VALID,91.6076,VALID,0,VALID,24.8151,VALID,95,VALID,0.844531,
2008-06-22, 01:01:04,VALID,1004.02,VALID,0,VALID,91.5695,VALID,0,VALID,24.8346,VALID,82,VALID,0.904297,
2008-06-22, 01:02:04,VALID,1004,VALID,0,VALID,91.6457,VALID,0,VALID,24.854,VALID,105,VALID,1.19414,
2008-06-22, 01:03:04,VALID,1003.99,VALID,0,VALID,91.5237,VALID,0,VALID,24.8735,VALID,126,VALID,0.777734,
2008-06-22, 01:04:04,VALID,1003.99,VALID,0,VALID,91.4855,VALID,0,VALID,24.9125,VALID,118,VALID,1.58164,
2008-06-22, 01:05:04,VALID,1004.01,VALID,0,VALID,91.2414,VALID,0,VALID,24.9709,VALID,119,VALID,1.16367,
2008-06-22, 01:06:04,VALID,1003.97,VALID,0,VALID,91.1346,VALID,0,VALID,24.9709,VALID,115,VALID,0.948047,
2008-06-22, 01:07:04,VALID,1003.95,VALID,0,VALID,91.0659,VALID,0,VALID,25.0098,VALID,105,VALID,1.26289,
2008-06-22, 01:08:04,VALID,1003.95,VALID,0,VALID,90.982,VALID,0,VALID,25.0098,VALID,123,VALID,1.33945,
2008-06-22, 01:09:04,VALID,1003.99,VALID,0,VALID,90.9897,VALID,0,VALID,24.9709,VALID,116,VALID,0.623047,
2008-06-22, 01:10:04,VALID,1003.99,VALID,0,VALID,91.0736,VALID,0,VALID,24.9514,VALID,125,VALID,0.741406,
2008-06-22, 01:11:04,VALID,1004.02,VALID,0,VALID,91.0812,VALID,0,VALID,24.9514,VALID,124,VALID,0.317969,
2008-06-22, 01:12:04,VALID,1004.03,VALID,0,VALID,91.1651,VALID,0,VALID,24.9125,VALID,121,VALID,0.35,
2008-06-22, 01:13:04,VALID,1004.02,VALID,0,VALID,91.2948,VALID,0,VALID,24.8735,VALID,121,VALID,0.0148437,
2008-06-22, 01:14:04,VALID,1004.02,VALID,0,VALID,91.394,VALID,0,VALID,24.8346,VALID,75,VALID,0.610156,
2008-06-22, 01:15:04,VALID,1004.03,VALID,0,VALID,91.4398,VALID,0,VALID,24.8132,VALID,74,VALID,0.410937,
2008-06-22, 01:16:04,VALID,1004.07,VALID,0,VALID,91.5084,VALID,0,VALID,24.7956,VALID,74,VALID,0.251563,
2008-06-22, 01:17:04,VALID,1004.04,VALID,0,VALID,91.6229,VALID,0,VALID,24.7567,VALID,74,VALID,0,
2008-06-22, 01:18:04,VALID,1004.02,VALID,0,VALID,91.7373,VALID,0,VALID,24.7196,VALID,74,VALID,0.0957031,
2008-06-22, 01:19:04,VALID,1004.04,VALID,0,VALID,91.8899,VALID,0,VALID,24.6788,VALID,74,VALID,0.23125,
2008-06-22, 01:20:04,VALID,1004.02,VALID,0,VALID,91.9967,VALID,0,VALID,24.6593,VALID,74,VALID,0.000390625,
2008-06-22, 01:21:04,VALID,1004.06,VALID,0,VALID,92.1645,VALID,0,VALID,24.6398,VALID,81,VALID,0.319531,
2008-06-22, 01:22:04,VALID,1004.08,VALID,0,VALID,92.2561,VALID,0,VALID,24.6398,VALID,81,VALID,0.229687,
2008-06-22, 01:23:04,VALID,1004.11,VALID,0,VALID,92.3095,VALID,0,VALID,24.6204,VALID,81,VALID,0.190625,
2008-06-22, 01:24:04,VALID,1004.1,VALID,0,VALID,92.3247,VALID,0,VALID,24.6222,VALID,81,VALID,0.126563,
2008-06-22, 01:25:04,VALID,1004.11,VALID,0,VALID,92.3552,VALID,0,VALID,24.5406,VALID,81,VALID,0.0257812,
2008-06-22, 01:26:04,VALID,1004.11,VALID,0,VALID,92.4925,VALID,0,VALID,24.5425,VALID,81,VALID,0,
2008-06-22, 01:27:04,VALID,1004.08,VALID,0,VALID,92.6146,VALID,0,VALID,24.5035,VALID,81,VALID,0.00273437,
2008-06-22, 01:28:04,VALID,1004.06,VALID,0,VALID,92.7748,VALID,0,VALID,24.4646,VALID,81,VALID,0.0980469,
2008-06-22, 01:29:04,VALID,1004.04,VALID,0,VALID,92.7977,VALID,0,VALID,24.4257,VALID,38,VALID,0.604297,
2008-06-22, 01:30:04,VALID,1003.97,VALID,0,VALID,92.874,VALID,0,VALID,24.3673,VALID,36,VALID,0.517578,
2008-06-22, 01:31:04,VALID,1004,VALID,0,VALID,92.935,VALID,0,VALID,24.3088,VALID,25,VALID,0.633203,
2008-06-22, 01:32:04,VALID,1004.04,VALID,0,VALID,93.0418,VALID,0,VALID,24.2504,VALID,16,VALID,0.713281,
2008-06-22, 01:33:04,VALID,1003.81,VALID,0,VALID,93.1944,VALID,0,VALID,24.192,VALID,14,VALID,0.707031,
2008-06-22, 01:34:04,VALID,1003.8,VALID,0,VALID,93.3394,VALID,0,VALID,24.1318,VALID,14,VALID,0.560156,
2008-06-22, 01:35:04,VALID,1003.79,VALID,0,VALID,93.4233,VALID,0,VALID,24.1142,VALID,14,VALID,0.480469,
2008-06-22, 06:46:04,VALID,1004.56,VALID,0,VALID,96.7189,VALID,41.7336,VALID,23.0436,VALID,51,VALID,0.541406,
2008-06-22, 06:47:04,VALID,1004.58,VALID,0,VALID,96.7342,VALID,43.5438,VALID,23.0224,VALID,64,VALID,0.292578,
2008-06-22, 06:48:04,VALID,1004.59,VALID,0,VALID,96.7266,VALID,45.8567,VALID,23.0436,VALID,64,VALID,0.339063,
2008-06-22, 06:49:04,VALID,1004.57,VALID,0,VALID,96.7266,VALID,48.5719,VALID,23.0436,VALID,64,VALID,0.174609,
2008-06-22, 06:50:04,VALID,1004.61,VALID,0,VALID,96.7495,VALID,51.086,VALID,23.063,VALID,64,VALID,0.309766,
2008-06-22, 06:51:04,VALID,1004.64,VALID,0,VALID,96.7495,VALID,53.0972,VALID,23.0825,VALID,64,VALID,0.329688,
2008-06-22, 06:52:04,VALID,1004.66,VALID,0,VALID,96.7495,VALID,54.1029,VALID,23.1019,VALID,64,VALID,0.336328,
2008-06-22, 06:53:04,VALID,1004.66,VALID,0,VALID,96.7495,VALID,54.8068,VALID,23.1409,VALID,65,VALID,0.102344,
2008-06-22, 06:54:04,VALID,1004.65,VALID,0,VALID,96.7571,VALID,55.913,VALID,23.1816,VALID,64,VALID,0.0761719,
2008-06-22, 06:55:04,VALID,1004.68,VALID,0,VALID,96.7647,VALID,57.0192,VALID,23.1993,VALID,64,VALID,0.119922,
2008-06-22, 06:56:04,VALID,1004.69,VALID,0,VALID,96.7342,VALID,58.3265,VALID,23.1993,VALID,64,VALID,0,
2008-06-22, 06:57:04,VALID,1004.68,VALID,0,VALID,96.7495,VALID,59.9355,VALID,23.2594,VALID,65,VALID,0.0753906,
2008-06-22, 06:58:04,VALID,1004.67,VALID,0,VALID,96.7342,VALID,63.4552,VALID,23.2594,VALID,64,VALID,0.25,
2008-06-22, 06:59:04,VALID,1004.7,VALID,0,VALID,96.7571,VALID,74.1149,VALID,23.2771,VALID,65,VALID,0.0105469,
2008-06-22, 07:00:04,VALID,1004.69,VALID,0,VALID,96.7418,VALID,94.6297,VALID,23.3744,VALID,65,VALID,0,
2008-06-22, 07:01:04,VALID,1004.69,VALID,0,VALID,96.7418,VALID,125.201,VALID,23.3921,VALID,65,VALID,0,
2008-06-22, 07:02:04,VALID,1004.7,VALID,0,VALID,96.7495,VALID,154.666,VALID,23.4293,VALID,65,VALID,0,
2008-06-22, 07:03:04,VALID,1004.71,VALID,0,VALID,96.7418,VALID,178.097,VALID,23.5302,VALID,65,VALID,0,
2008-06-22, 07:04:04,VALID,1004.77,VALID,0,VALID,96.7418,VALID,198.21,VALID,23.6257,VALID,65,VALID,0,
2008-06-22, 07:05:04,VALID,1004.77,VALID,0,VALID,96.7342,VALID,212.59,VALID,23.6841,VALID,78,VALID,0.573438,
2008-06-22, 07:06:04,VALID,1004.8,VALID,0,VALID,96.7418,VALID,220.535,VALID,23.7814,VALID,84,VALID,0.305859,
2008-06-22, 07:07:04,VALID,1004.85,VALID,0,VALID,96.7342,VALID,227.071,VALID,23.8185,VALID,84,VALID,0.464844,
2008-06-22, 07:08:04,VALID,1004.88,VALID,0,VALID,96.7189,VALID,233.004,VALID,23.9389,VALID,67,VALID,0.510156,
2008-06-22, 07:09:04,VALID,1004.91,VALID,0,VALID,96.7113,VALID,218.624,VALID,24.0539,VALID,64,VALID,0.147656,
2008-06-22, 07:10:04,VALID,1004.92,VALID,0,VALID,96.6808,VALID,181.013,VALID,24.1707,VALID,64,VALID,0.245703,
2008-06-22, 07:11:04,VALID,1004.98,VALID,0,VALID,96.6732,VALID,93.5235,VALID,24.1123,VALID,64,VALID,0.571094,
2008-06-22, 07:12:04,VALID,1004.99,VALID,0,VALID,96.6732,VALID,106.697,VALID,24.0929,VALID,64,VALID,0.371484,
2008-06-22, 07:13:04,VALID,1004.99,VALID,0,VALID,96.6503,VALID,116.754,VALID,24.0734,VALID,64,VALID,0.302734,
2008-06-22, 07:14:04,VALID,1005.03,VALID,0,VALID,96.6579,VALID,200.824,VALID,24.1707,VALID,64,VALID,0.126172,
2008-06-22, 07:15:04,VALID,1005,VALID,0,VALID,96.6427,VALID,268.604,VALID,24.192,VALID,64,VALID,0.274219,
2008-06-22, 07:16:04,VALID,1005.03,VALID,0,VALID,96.6427,VALID,227.071,VALID,24.231,VALID,64,VALID,0.226172,
2008-06-22, 07:17:04,VALID,1005.04,VALID,0,VALID,96.6274,VALID,229.082,VALID,24.307,VALID,64,VALID,0.223047,
2008-06-22, 07:18:04,VALID,1005.05,VALID,0,VALID,96.6198,VALID,225.362,VALID,24.3673,VALID,64,VALID,0.180078,
2008-06-22, 07:19:04,VALID,1005.04,VALID,0,VALID,96.574,VALID,244.971,VALID,24.4062,VALID,64,VALID,0.368359,
2008-06-22, 07:20:04,VALID,1005.11,VALID,0,VALID,96.574,VALID,245.776,VALID,24.4646,VALID,64,VALID,0.375391,
2008-06-22, 07:21:04,VALID,1005.09,VALID,0,VALID,96.5816,VALID,224.658,VALID,24.5425,VALID,28,VALID,0.547266,
2008-06-22, 07:22:04,VALID,1005.11,VALID,0,VALID,96.5893,VALID,272.526,VALID,24.5425,VALID,27,VALID,0.524609,
2008-06-22, 07:23:04,VALID,1005.13,VALID,0,VALID,96.5969,VALID,280.168,VALID,24.6398,VALID,31,VALID,0.291016,
2008-06-22, 07:24:04,VALID,1005.11,VALID,0,VALID,96.574,VALID,282.582,VALID,24.7177,VALID,31,VALID,0.467969,
2008-06-22, 07:25:04,VALID,1005.13,VALID,0,VALID,96.5816,VALID,288.314,VALID,24.817,VALID,20,VALID,0.480859,
2008-06-22, 07:26:04,VALID,1005.12,VALID,0,VALID,96.5359,VALID,294.348,VALID,24.8346,VALID,47,VALID,0.414844,
2008-06-22, 07:27:04,VALID,1005.12,VALID,0,VALID,96.5206,VALID,296.46,VALID,24.8735,VALID,45,VALID,1.01914,
2008-06-22, 07:28:04,VALID,1005.13,VALID,0,VALID,96.4901,VALID,209.372,VALID,24.854,VALID,11,VALID,1.12891,
2008-06-22, 07:29:04,VALID,1005.14,VALID,0,VALID,96.4901,VALID,107.1,VALID,24.7975,VALID,35,VALID,0.632813,
2008-06-22, 07:30:04,VALID,1005.12,VALID,0,VALID,96.4519,VALID,130.531,VALID,24.7001,VALID,51,VALID,0.94375,
2008-06-22, 07:31:04,VALID,1005.13,VALID,0,VALID,96.4443,VALID,92.0151,VALID,24.6417,VALID,72,VALID,0.675781,
2008-06-22, 07:32:04,VALID,1005.16,VALID,0,VALID,96.4443,VALID,90.5067,VALID,24.6222,VALID,69,VALID,0.488672,
2008-06-22, 07:33:04,VALID,1005.12,VALID,0,VALID,96.4214,VALID,103.58,VALID,24.5833,VALID,53,VALID,0.321484,
2008-06-22, 07:34:04,VALID,1005.14,VALID,0,VALID,96.429,VALID,92.0151,VALID,24.6009,VALID,53,VALID,0.301172,
2008-06-22, 07:35:04,VALID,1005.15,VALID,0,VALID,96.4138,VALID,96.5404,VALID,24.6222,VALID,109,VALID,0.832812,
2008-06-22, 07:36:04,VALID,1005.13,VALID,0,VALID,96.4138,VALID,118.061,VALID,24.5443,VALID,109,VALID,0.920703,
2008-06-22, 07:37:04,VALID,1005.2,VALID,0,VALID,96.3756,VALID,206.657,VALID,24.5249,VALID,102,VALID,1.01016,
2008-06-22, 07:38:04,VALID,1005.18,VALID,0,VALID,96.368,VALID,228.278,VALID,24.5443,VALID,134,VALID,0.8125,
2008-06-22, 07:39:04,VALID,1005.22,VALID,0,VALID,96.3833,VALID,345.031,VALID,24.5833,VALID,104,VALID,0.723828,
2008-06-22, 07:40:04,VALID,1005.23,VALID,0,VALID,96.3985,VALID,310.74,VALID,24.6807,VALID,87,VALID,1.18906,
2008-06-22, 07:41:04,VALID,1005.25,VALID,0,VALID,96.3756,VALID,321.902,VALID,24.702,VALID,87,VALID,1.16641,
2008-06-22, 07:42:04,VALID,1005.24,VALID,0,VALID,96.4062,VALID,357.602,VALID,24.8773,VALID,99,VALID,0.622266,
2008-06-22, 07:43:04,VALID,1005.23,VALID,0,VALID,96.3833,VALID,360.116,VALID,24.8949,VALID,119,VALID,1.02383,
2008-06-22, 07:44:04,VALID,1005.25,VALID,0,VALID,96.2841,VALID,324.315,VALID,24.7994,VALID,126,VALID,1.91172,
2008-06-22, 07:45:04,VALID,1005.25,VALID,0,VALID,96.2994,VALID,355.289,VALID,24.9143,VALID,113,VALID,1.44336,
2008-06-22, 07:46:04,VALID,1005.27,VALID,0,VALID,96.2154,VALID,354.484,VALID,24.8151,VALID,112,VALID,1.1625,
2008-06-22, 07:47:04,VALID,1005.21,VALID,0,VALID,96.1239,VALID,346.339,VALID,24.8364,VALID,113,VALID,1.09297,
2008-06-22, 07:48:04,VALID,1005.2,VALID,0,VALID,96.1163,VALID,144.61,VALID,24.9125,VALID,133,VALID,1.00391,
2008-06-22, 07:49:04,VALID,1005.15,VALID,0,VALID,96.0018,VALID,144.006,VALID,24.8346,VALID,129,VALID,1.72969,
2008-06-22, 07:50:04,VALID,1005.15,VALID,0,VALID,95.8874,VALID,249.296,VALID,24.8364,VALID,127,VALID,1.8457,
2008-06-22, 07:51:04,VALID,1005.16,VALID,0,VALID,95.6662,VALID,291.23,VALID,24.778,VALID,89,VALID,2.11367,
2008-06-22, 07:52:04,VALID,1005.2,VALID,0,VALID,95.8874,VALID,316.069,VALID,24.9143,VALID,111,VALID,0.819141,
2008-06-22, 07:53:04,VALID,1005.21,VALID,0,VALID,95.7424,VALID,307.823,VALID,24.8754,VALID,116,VALID,1.30352,
2008-06-22, 07:54:04,VALID,1005.28,VALID,0,VALID,95.9713,VALID,217.819,VALID,25.0507,VALID,117,VALID,1.02422,
2008-06-22, 07:55:04,VALID,1005.28,VALID,0,VALID,95.5594,VALID,126.81,VALID,24.9125,VALID,113,VALID,1.80625,
2008-06-22, 07:56:04,VALID,1005.28,VALID,0,VALID,95.2161,VALID,128.218,VALID,24.8346,VALID,115,VALID,2.13906,
2008-06-22, 07:57:04,VALID,1005.29,VALID,0,VALID,95.1474,VALID,130.229,VALID,24.7761,VALID,120,VALID,1.86992,
2008-06-22, 07:58:04,VALID,1005.33,VALID,0,VALID,95.2466,VALID,132.14,VALID,24.7567,VALID,116,VALID,1.20938,
2008-06-22, 07:59:04,VALID,1005.37,VALID,0,VALID,95.3839,VALID,134.05,VALID,24.7567,VALID,114,VALID,1.1625,
2008-06-22, 08:00:04,VALID,1005.38,VALID,0,VALID,95.3839,VALID,138.777,VALID,24.7391,VALID,90,VALID,0.780859,
2008-06-22, 08:01:04,VALID,1005.4,VALID,0,VALID,95.3457,VALID,143.202,VALID,24.7391,VALID,109,VALID,1.04844,
2008-06-22, 08:02:04,VALID,1005.43,VALID,0,VALID,95.2923,VALID,144.509,VALID,24.7001,VALID,118,VALID,1.55664,
2008-06-22, 08:03:04,VALID,1005.48,VALID,0,VALID,95.3457,VALID,145.615,VALID,24.7196,VALID,86,VALID,0.735937,
2008-06-22, 08:04:04,VALID,1005.49,VALID,0,VALID,95.5365,VALID,144.71,VALID,24.778,VALID,114,VALID,0.795703,
2008-06-22, 08:05:04,VALID,1005.51,VALID,0,VALID,95.5212,VALID,140.587,VALID,24.7994,VALID,119,VALID,0.618359,
2008-06-22, 08:06:04,VALID,1005.55,VALID,0,VALID,95.5822,VALID,135.659,VALID,24.817,VALID,93,VALID,0.392188,
2008-06-22, 08:07:04,VALID,1005.58,VALID,0,VALID,95.6356,VALID,128.318,VALID,24.8559,VALID,92,VALID,0.315625,
2008-06-22, 08:08:04,VALID,1005.58,VALID,0,VALID,95.5975,VALID,124.497,VALID,24.8559,VALID,114,VALID,0.51875,
2008-06-22, 08:09:04,VALID,1005.59,VALID,0,VALID,95.4373,VALID,130.229,VALID,24.817,VALID,113,VALID,0.8875,
2008-06-22, 08:10:04,VALID,1005.58,VALID,0,VALID,95.3534,VALID,144.811,VALID,24.778,VALID,101,VALID,0.746484,
2008-06-22, 08:11:04,VALID,1005.61,VALID,0,VALID,95.5594,VALID,157.381,VALID,24.8559,VALID,141,VALID,0.825,
2008-06-22, 08:12:04,VALID,1005.6,VALID,0,VALID,95.5441,VALID,165.225,VALID,24.8754,VALID,109,VALID,0.858984,
2008-06-22, 08:13:04,VALID,1005.62,VALID,0,VALID,95.5365,VALID,176.387,VALID,24.9162,VALID,80,VALID,0.596875,
2008-06-22, 08:14:04,VALID,1005.61,VALID,0,VALID,95.4831,VALID,183.527,VALID,24.9357,VALID,91,VALID,0.658984,
2008-06-22, 08:15:04,VALID,1005.64,VALID,0,VALID,95.4373,VALID,182.119,VALID,24.9338,VALID,102,VALID,1.32344,
2008-06-22, 08:16:04,VALID,1005.61,VALID,0,VALID,95.3381,VALID,178.801,VALID,24.9338,VALID,90,VALID,0.723047,
2008-06-22, 08:17:04,VALID,1005.62,VALID,0,VALID,95.4144,VALID,173.371,VALID,24.9709,VALID,108,VALID,0.888281,
2008-06-22, 08:18:04,VALID,1005.61,VALID,0,VALID,95.1093,VALID,172.868,VALID,24.9533,VALID,145,VALID,1.33398,
2008-06-22, 08:19:04,VALID,1005.62,VALID,0,VALID,95.0024,VALID,170.555,VALID,24.9728,VALID,111,VALID,1.32148,
2008-06-22, 08:20:04,VALID,1005.62,VALID,0,VALID,94.9719,VALID,168.745,VALID,25.0117,VALID,131,VALID,1.23945,
2008-06-22, 08:21:04,VALID,1005.65,VALID,0,VALID,94.7583,VALID,165.426,VALID,25.0117,VALID,146,VALID,0.771484,
2008-06-22, 08:22:04,VALID,1005.64,VALID,0,VALID,94.6591,VALID,156.677,VALID,25.0117,VALID,104,VALID,1.50898,
2008-06-22, 08:23:04,VALID,1005.65,VALID,0,VALID,94.4074,VALID,160.297,VALID,25.0117,VALID,122,VALID,1.34102,
2008-06-22, 08:24:04,VALID,1005.64,VALID,0,VALID,93.6292,VALID,192.075,VALID,24.9922,VALID,134,VALID,1.61172,
2008-06-22, 08:25:04,VALID,1005.7,VALID,0,VALID,93.553,VALID,237.731,VALID,24.9709,VALID,131,VALID,1.53555,
2008-06-22, 08:26:04,VALID,1005.69,VALID,0,VALID,94.0488,VALID,191.271,VALID,25.0701,VALID,118,VALID,1.19453,
2008-06-22, 08:27:04,VALID,1005.71,VALID,0,VALID,93.4919,VALID,183.93,VALID,25.0701,VALID,107,VALID,1.34414,
2008-06-22, 08:28:04,VALID,1005.73,VALID,0,VALID,92.8053,VALID,181.416,VALID,25.0701,VALID,116,VALID,1.82031,
2008-06-22, 08:29:04,VALID,1005.75,VALID,0,VALID,92.7519,VALID,179.404,VALID,25.0877,VALID,130,VALID,2.125,
2008-06-22, 08:30:04,VALID,1005.73,VALID,0,VALID,92.8206,VALID,184.03,VALID,25.1267,VALID,111,VALID,1.06523,
2008-06-22, 08:31:04,VALID,1005.77,VALID,0,VALID,92.7519,VALID,191.874,VALID,25.1675,VALID,134,VALID,1.1625,
2008-06-22, 08:32:04,VALID,1005.77,VALID,0,VALID,92.8053,VALID,203.037,VALID,25.1675,VALID,85,VALID,1.27461,
2008-06-22, 08:33:04,VALID,1005.76,VALID,0,VALID,92.729,VALID,211.082,VALID,25.187,VALID,134,VALID,1.1793,
2008-06-22, 08:34:04,VALID,1005.83,VALID,0,VALID,93.141,VALID,221.44,VALID,25.2454,VALID,110,VALID,0.992578,
2008-06-22, 08:35:04,VALID,1005.82,VALID,0,VALID,92.5612,VALID,220.937,VALID,25.2844,VALID,121,VALID,1.62188,
2008-06-22, 08:36:04,VALID,1005.82,VALID,0,VALID,92.0501,VALID,207.461,VALID,25.3233,VALID,95,VALID,1.81133,
2008-06-22, 08:37:04,VALID,1005.84,VALID,0,VALID,92.0577,VALID,190.567,VALID,25.3623,VALID,116,VALID,1.36484,
2008-06-22, 08:38:04,VALID,1005.82,VALID,0,VALID,91.3253,VALID,179.404,VALID,25.3818,VALID,117,VALID,1.76641,
2008-06-22, 08:39:04,VALID,1005.78,VALID,0,VALID,91.5084,VALID,174.678,VALID,25.3798,VALID,125,VALID,1.51875,
2008-06-22, 08:40:04,VALID,1005.86,VALID,0,VALID,91.989,VALID,165.527,VALID,25.4012,VALID,122,VALID,1.00703,
2008-06-22, 08:41:04,VALID,1005.86,VALID,0,VALID,91.2796,VALID,161.906,VALID,25.4012,VALID,117,VALID,1.85977,
2008-06-22, 08:42:04,VALID,1005.9,VALID,0,VALID,91.867,VALID,147.325,VALID,25.4792,VALID,120,VALID,1.33984,
2008-06-22, 08:43:04,VALID,1005.9,VALID,0,VALID,91.6152,VALID,148.733,VALID,25.5181,VALID,88,VALID,1.46406,
2008-06-22, 08:44:04,VALID,1005.9,VALID,0,VALID,92.1111,VALID,185.338,VALID,25.5181,VALID,118,VALID,0.554688,
2008-06-22, 08:45:04,VALID,1005.9,VALID,0,VALID,91.6457,VALID,273.23,VALID,25.5142,VALID,147,VALID,1.29336,
2008-06-22, 08:46:04,VALID,1005.92,VALID,0,VALID,91.4398,VALID,246.681,VALID,25.5551,VALID,145,VALID,1.05078,
2008-06-22, 08:47:04,VALID,1005.91,VALID,0,VALID,91.6,VALID,220.132,VALID,25.5746,VALID,114,VALID,1.06602,
2008-06-22, 08:48:04,VALID,1005.93,VALID,0,VALID,91.3787,VALID,229.284,VALID,25.6525,VALID,149,VALID,1.44883,
2008-06-22, 08:49:04,VALID,1005.88,VALID,0,VALID,92.0501,VALID,267.598,VALID,25.7304,VALID,103,VALID,0.682031,